TimePST,TemperatureF,Dew PointF,Humidity,Sea Level PressureIn,VisibilityMPH,Wind Direction,Wind SpeedMPH,Gust SpeedMPH,PrecipitationIn,Events,Conditions,WindDirDegrees,DateUTC
12:15 AM,39.2,33.8,81,30.20,10.0,SE,3.5,-,N/A,,Scattered Clouds,130,2013-02-22 08:15:00
12:55 AM,39.2,33.8,81,30.21,10.0,Calm,Calm,-,N/A,,Clear,0,2013-02-22 08:55:00
1:15 AM,39.2,33.8,81,30.21,10.0,ESE,3.5,-,N/A,,Clear,120,2013-02-22 09:15:00
1:35 AM,39.2,33.8,81,30.21,10.0,ESE,5.8,-,N/A,,Clear,120,2013-02-22 09:35:00
1:55 AM,37.4,32.0,81,30.21,10.0,ESE,4.6,-,N/A,,Clear,120,2013-02-22 09:55:00
2:15 AM,37.4,32.0,81,30.20,10.0,SE,5.8,-,N/A,,Clear,140,2013-02-22 10:15:00
2:35 AM,37.4,32.0,81,30.20,10.0,ESE,5.8,-,N/A,,Clear,120,2013-02-22 10:35:00
2:55 AM,37.4,33.8,87,30.20,10.0,ESE,5.8,-,N/A,,Scattered Clouds,120,2013-02-22 10:55:00
3:15 AM,37.4,30.2,75,30.20,10.0,ESE,5.8,-,N/A,,Scattered Clouds,110,2013-02-22 11:15:00
3:35 AM,37.4,30.2,75,30.20,10.0,ESE,4.6,-,N/A,,Clear,120,2013-02-22 11:35:00
3:55 AM,37.4,32.0,81,30.20,10.0,ESE,5.8,-,N/A,,Clear,110,2013-02-22 11:55:00
4:15 AM,37.4,30.2,75,30.20,10.0,ESE,5.8,-,N/A,,Clear,110,2013-02-22 12:15:00
4:35 AM,39.2,32.0,75,30.21,10.0,East,4.6,-,N/A,,Mostly Cloudy,100,2013-02-22 12:35:00
4:55 AM,39.2,32.0,75,30.21,10.0,East,4.6,-,N/A,,Overcast,90,2013-02-22 12:55:00
5:15 AM,39.2,32.0,75,30.22,10.0,East,6.9,-,N/A,,Overcast,100,2013-02-22 13:15:00
5:35 AM,37.4,32.0,81,30.21,10.0,East,6.9,-,N/A,,Overcast,100,2013-02-22 13:35:00
5:55 AM,37.4,30.2,75,30.22,10.0,ESE,5.8,-,N/A,,Overcast,110,2013-02-22 13:55:00
6:15 AM,37.4,30.2,75,30.23,10.0,ESE,4.6,-,N/A,,Overcast,110,2013-02-22 14:15:00
6:35 AM,35.6,28.4,75,30.23,10.0,SE,3.5,-,N/A,,Overcast,130,2013-02-22 14:35:00
6:55 AM,35.6,30.2,81,30.24,10.0,ESE,3.5,-,N/A,,Scattered Clouds,120,2013-02-22 14:55:00
7:15 AM,37.4,30.2,75,30.24,10.0,ESE,4.6,-,N/A,,Clear,120,2013-02-22 15:15:00
7:35 AM,35.6,30.2,81,30.26,10.0,Calm,Calm,-,N/A,,Clear,0,2013-02-22 15:35:00
7:55 AM,37.4,32.0,81,30.27,10.0,SE,5.8,-,N/A,,Clear,130,2013-02-22 15:55:00
8:15 AM,39.2,35.6,87,30.27,10.0,ESE,6.9,-,N/A,,Clear,120,2013-02-22 16:15:00
8:35 AM,42.8,35.6,76,30.28,10.0,SE,6.9,-,N/A,,Clear,140,2013-02-22 16:35:00
8:55 AM,44.6,35.6,71,30.28,10.0,South,4.6,-,N/A,,Clear,170,2013-02-22 16:55:00
9:15 AM,44.6,37.4,76,30.27,10.0,SSE,5.8,-,N/A,,Clear,160,2013-02-22 17:15:00
9:35 AM,46.4,37.4,71,30.28,10.0,SSE,5.8,-,N/A,,Clear,160,2013-02-22 17:35:00
9:55 AM,48.2,39.2,71,30.28,10.0,South,3.5,-,N/A,,Clear,190,2013-02-22 17:55:00
10:15 AM,48.2,39.2,71,30.28,10.0,SSE,3.5,-,N/A,,Clear,150,2013-02-22 18:15:00
10:35 AM,50.0,39.2,66,30.28,10.0,South,5.8,-,N/A,,Clear,180,2013-02-22 18:35:00
11:15 AM,51.8,39.2,62,30.28,10.0,South,3.5,-,N/A,,Clear,190,2013-02-22 19:15:00
11:35 AM,53.6,39.2,58,30.27,10.0,WSW,3.5,-,N/A,,Clear,250,2013-02-22 19:35:00
11:55 AM,53.6,37.4,54,30.26,10.0,SE,3.5,-,N/A,,Clear,140,2013-02-22 19:55:00
12:15 PM,53.6,37.4,54,30.25,10.0,Calm,Calm,-,N/A,,Clear,0,2013-02-22 20:15:00
12:35 PM,55.4,37.4,51,30.25,10.0,Calm,Calm,-,N/A,,Clear,0,2013-02-22 20:35:00
12:55 PM,55.4,37.4,51,30.24,10.0,SE,4.6,-,N/A,,Clear,140,2013-02-22 20:55:00
1:15 PM,55.4,37.4,51,30.24,10.0,Calm,Calm,-,N/A,,Clear,0,2013-02-22 21:15:00
1:35 PM,55.4,37.4,51,30.23,10.0,Calm,Calm,-,N/A,,Clear,0,2013-02-22 21:35:00
1:55 PM,57.2,39.2,51,30.23,10.0,West,3.5,-,N/A,,Clear,270,2013-02-22 21:55:00
2:15 PM,57.2,37.4,48,30.22,10.0,SW,4.6,-,N/A,,Clear,220,2013-02-22 22:15:00
2:35 PM,57.2,37.4,48,30.22,10.0,WNW,3.5,-,N/A,,Clear,290,2013-02-22 22:35:00
2:55 PM,57.2,37.4,48,30.21,10.0,Calm,Calm,-,N/A,,Clear,0,2013-02-22 22:55:00
3:15 PM,57.2,37.4,48,30.21,10.0,West,4.6,-,N/A,,Clear,260,2013-02-22 23:15:00
3:35 PM,57.2,37.4,48,30.21,10.0,West,4.6,-,N/A,,Clear,260,2013-02-22 23:35:00
3:55 PM,57.2,37.4,48,30.21,10.0,West,6.9,-,N/A,,Clear,260,2013-02-22 23:55:00
4:15 PM,57.2,37.4,48,30.20,10.0,West,4.6,-,N/A,,Clear,260,2013-02-23 00:15:00
4:35 PM,57.2,37.4,48,30.21,10.0,NW,3.5,-,N/A,,Clear,310,2013-02-23 00:35:00
4:55 PM,57.2,37.4,48,30.21,10.0,West,3.5,-,N/A,,Clear,280,2013-02-23 00:55:00
5:15 PM,55.4,37.4,51,30.21,10.0,West,4.6,-,N/A,,Clear,270,2013-02-23 01:15:00
5:35 PM,55.4,37.4,51,30.21,10.0,Calm,Calm,-,N/A,,Clear,0,2013-02-23 01:35:00
5:55 PM,55.4,35.6,47,30.22,10.0,Calm,Calm,-,N/A,,Clear,0,2013-02-23 01:55:00
6:15 PM,55.4,35.6,47,30.22,10.0,Calm,Calm,-,N/A,,Clear,0,2013-02-23 02:15:00
6:35 PM,53.6,37.4,54,30.23,10.0,Calm,Calm,-,N/A,,Clear,0,2013-02-23 02:35:00
6:55 PM,51.8,37.4,58,30.23,10.0,Calm,Calm,-,N/A,,Clear,0,2013-02-23 02:55:00
7:15 PM,50.0,37.4,62,30.24,10.0,Calm,Calm,-,N/A,,Clear,0,2013-02-23 03:15:00
7:35 PM,48.2,37.4,66,30.24,10.0,Calm,Calm,-,N/A,,Clear,0,2013-02-23 03:35:00
7:55 PM,48.2,37.4,66,30.23,10.0,Calm,Calm,-,N/A,,Clear,0,2013-02-23 03:55:00
8:15 PM,48.2,37.4,66,30.23,10.0,Calm,Calm,-,N/A,,Clear,0,2013-02-23 04:15:00
8:35 PM,46.4,39.2,76,30.24,10.0,Calm,Calm,-,N/A,,Clear,0,2013-02-23 04:35:00
8:55 PM,46.4,37.4,71,30.24,10.0,Calm,Calm,-,N/A,,Clear,0,2013-02-23 04:55:00
9:15 PM,46.4,35.6,66,30.24,10.0,Calm,Calm,-,N/A,,Clear,0,2013-02-23 05:15:00
9:35 PM,44.6,37.4,76,30.24,10.0,Calm,Calm,-,N/A,,Clear,0,2013-02-23 05:35:00
9:55 PM,44.6,35.6,71,30.24,10.0,East,4.6,-,N/A,,Clear,100,2013-02-23 05:55:00
10:15 PM,44.6,37.4,76,30.24,10.0,ESE,3.5,-,N/A,,Clear,110,2013-02-23 06:15:00
10:35 PM,42.8,35.6,76,30.25,10.0,West,3.5,-,N/A,,Clear,260,2013-02-23 06:35:00
10:55 PM,44.6,35.6,71,30.25,10.0,Calm,Calm,-,N/A,,Clear,0,2013-02-23 06:55:00
11:15 PM,42.8,37.4,81,30.23,9.0,SSE,3.5,-,N/A,,Clear,150,2013-02-23 07:15:00
11:35 PM,42.8,35.6,76,30.24,8.0,Calm,Calm,-,N/A,,Clear,0,2013-02-23 07:35:00
11:55 PM,42.8,35.6,76,30.22,8.0,SE,3.5,-,N/A,,Clear,140,2013-02-23 07:55:00